Location: Boissi�res
(45.2500°N, 2.3667°E)
Time: 15:44:16
(UTC+00:00)

Ariane Rocket - Pass Details

Date: 03 March 2021
Orbit: 759 x 771 km, 98.7° (Epoch: 11 April)

Event Time Altitude Azimuth Distance (km) Brightness Sun altitude
Exits shadow 20:22:15 40° 217° (SW) 1,128 3.9 -28.8°
Maximum altitude 20:23:33 50° 260° (W) 982 3.7 -29.0°
Drops below altitude 10° 20:28:32 10° 336° (NNW) 2,322 6.0 -29.8°
Sets 20:30:55 0° 341° (NNW) 3,252 6.8 -30.2°
